{"data":{"norad_id":58946,"intl_designator":"2024-027R","name":"STARLINK-31331","alt_names":[],"object_type":"PAYLOAD","status":"ACTIVE","operator":null,"country":"US","launch_date":"2024-02-10","launch_site_code":"AFWTR","launch_vehicle":null,"mission":null,"orbit_class":"UNKNOWN","rcs_meters":null,"size_class":null,"mass_kg":null,"dimensions":null,"purposes":["comms"],"wikipedia_slug":null,"has_3d_model":false,"image_url":null,"decayed_at":null,"tle_current":{"epoch":"2026-05-24T15:51:23.451840Z","epoch_age_seconds":100533,"freshness":"FRESH","line1":"1 58946U 24027R   26144.66068810 -.00000968  00000+0 -19424-4 0  9997","line2":"2 58946  53.1602 316.4769 0001305  84.5294 275.5856 15.31687905128967","mean_motion":15.31687905,"eccentricity":0.0001305,"inclination_deg":53.1602,"raan_deg":316.4769,"arg_perigee_deg":84.5294,"mean_anomaly_deg":275.5856,"bstar":-1.9424e-5,"rev_number":12896,"period_min":94.013930337852,"perigee_km":469.8822668755,"apogee_km":471.66983318156,"semimajor_km":6848.9130500285,"source":"CELESTRAK","updated_at":"2026-05-25T13:38:18.791495Z"}}}